Über Orbcomm D3
Group: 3 satellites
Beschreibung wird geladen...
Live-Position
3D-Globus wird geladen...
Nächste Überflüge
Höhenverlauf
Altitude vs Time
uPlot chart will show altitude changes over time
Zweizeiliger Elementsatz
1 25981U 99065B 26063.02871851 .00001122 00000-0 41499-3 0 9999
2 25981 45.0228 292.6220 0003509 267.0739 92.9708 14.37891417371395
Epoch: 4. März 2026 •
Age: 11 hours
Aktueller Status
Höhe 768.3 km
Geschwindigkeit 7.47 km/s
Subsatellitenpunkt 30.80°N,
1.11°E
Startdatum 4. Dez. 1999
Alter 26.2 years
Typ other
Technische Details
Klassifizierung Payload
Masse 44.00 kg
Trockenmasse 44.00 kg
Gesamtmasse 44.00 kg
Länge 0.20 m
Durchmesser 1.00 m
Spannweite 4.30 m
Form Cyl + 2 Pan + Ant
Hersteller OSCG
Bus-Typ Microstar
Phasenstatus In Orbit
Besitzer/Staat ORBC/US
Große Konstellationen
Loading constellations...